Regional Weather Roundup
Issued by NWS Green Bay, WI

Home | Current Version | Previous Version | Text Only | Print | Product List | Glossary On
Versions: 1 2 3 4 5 6 7 8 9 10 11 12 13 14 15 16 17 18 19 20 21 22 23 24 25 26 27 28 29 30 31 32 33 34 35 36 37 38 39 40 41 42 43 44 45 46 47 48 49 50
000
ASUS43 KGRB 251911
RWRGRB

NORTH-CENTRAL AND NORTHEAST WISCONSIN REGIONAL WEATHER ROUNDUP
NATIONAL WEATHER SERVICE GREEN BAY WI
200 PM CDT SUN SEP 25 2016

WIZ005-009-010>012-018-019-252000-
NORTH CENTRAL WISCONSIN

CITY           SKY/WX    TMP DP  RH WIND       PRES   REMARKS
IRONWOOD       CLOUDY    66  63  90 S15       29.81
MANITOWISH WTR DRIZZLE   63  63 100 S7        29.85F
ARBOR VITAE    CLOUDY    64  63  96 S10       29.86F FOG
EAGLE RIVER    LGT RAIN  64  64 100 S8        29.88F
LAND O LAKES   CLOUDY    64  63  96 S9        29.89F
RHINELANDER    CLOUDY    64  64 100 S9        29.90F FOG
PHILLIPS       CLOUDY    65  65 100 SW8       29.86F FOG
ANTIGO         CLOUDY    65  65 100 SE9       29.91F FOG
TOMAHAWK       FOG       64  62  96 CALM      29.89F VSB 1
MERRILL        CLOUDY    66  66 100 S8        29.90F FOG
$$

WIZ013-073-252000-
NORTHEAST WISCONSIN

CITY           SKY/WX    TMP DP  RH WIND       PRES   REMARKS
IRON MOUNTAIN  LGT RAIN  63  61  93 SE10G20   29.91F FOG
MARINETTE      CLOUDY    69  63  81 S12G23    29.93F
OCONTO         PTSUNNY   71  63  76 S13G21    29.91F
$$

WIZ017-030-035>037-045-252000-
CENTRAL WISCONSIN

CITY           SKY/WX    TMP DP  RH WIND       PRES   REMARKS
MEDFORD        LGT RAIN N/A N/A N/A SW9       29.88F
WAUSAU         LGT RAIN  67  65  93 S7        29.88F FOG
MOSINEE        LGT RAIN  66  66 100 S6        29.92F FOG
MARSHFIELD     CLOUDY    70  66  87 SW12      29.89F FOG
WISC RAPIDS    LGT RAIN  72  70  93 SW8       29.91F FOG
STEVENS POINT  LGT RAIN  68  68  99 SW6       29.90F
WAUPACA        CLOUDY    77  71  82 S7        29.89F
SHAWANO        CLOUDY    73  68  87 S3        29.90F
CLINTONVILLE   NOT AVBL
WAUTOMA        LGT RAIN  75  69  81 S9        29.89F
$$

WIZ038-039-048-051-252000-
FOX VALLEY

CITY           SKY/WX    TMP DP  RH WIND       PRES   REMARKS
NWS GREEN BAY  PTSUNNY   75  67  76 S17G23    29.91F
APPLETON       PTSUNNY   73  64  73 S14       29.91F
OSHKOSH        LGT RAIN  76  69  79 S9        29.91F
FOND DU LAC    LGT RAIN  78  67  68 S12       29.92F
$$

WIZ022-050-052-252000-
EAST CENTRAL WISCONSIN

CITY           SKY/WX    TMP DP  RH WIND       PRES   REMARKS
EPHRAIM        CLOUDY    68  62  79 S15G25    29.94F
WASHINGTON ISL CLOUDY    67  59  76 S12G18    29.95F
STURGEON BAY   CLOUDY    68  63  84 S22G32    29.93F
MANITOWOC      MOSUNNY   70  62  76 S24G30    29.96F
SHEBOYGAN      SUNNY     71  62  73 S18G26    29.98F
$$

LMZ563-521-522-541>543-252000-
LAKESHORE

STATION/POSITION TIME  TEMP    WIND        PRES    VSBY  WAVE
                       AIR SEA DIR/SP/G                  HT/PER
                 (UTC) (F)     (DEG/KT/KT) (MB)    (MI)  (FT/S)
SHEBOYGAN LKSHOR 1900   64     170/ 15/ 16 1014.4F
KEWAUNEE LKSHORE 1800   66     170/ 17/ 19 1015.3F
NORTHPORT PIER   1840   66     150/ 16/ 23 1014.6F
N MID LAKE BUOY  1850   67 68  160/ 17/ 19 1014.5F         4/ 6
CHAMBERS ISLAND  1800   68     140/  7/ 18 1014.6F
MENOMINEE LKSHOR 1800   67     150/ 19/ 21 1013.4F
$$



USA.gov is the U.S. government's official web portal to all federal, state and local government web resources and services.